Tracking 35055 objects as of 19-Aug-2026
HD Live streaming from Space Station
objects crossing your sky now

STARLINK-6369

Track STARLINK-6369 now!
10-day predictions
STARLINK-6369 is classified as:


NORAD ID: 57374
Int'l Code: 2023-099AY
Launch date: July 16, 2023
Source: United States (US)
Launch site: AIR FORCE EASTERN TEST RANGE (AFETR)
Your satellite tracking list
Your tracking list is empty




NASA's NSSDC Master Catalog

Two Line Element Set (TLE):
1 57374U 23099AY  26230.76068071 -.00000082  00000-0  65418-5 0  9997
2 57374  43.0055  28.4652 0001651 269.7870  90.2793 15.27576737171193
Source of the keplerian elements: AFSPC